#timestamp,LO_Frequency,Hit,StdDev 
1630609215.9,286047001.6,N
1630609235.7,286047004.3,Y
1630609255.5,286047002.2,P
1630609275.4,286047002.1,P
1630609295.2,286047001.8,P
1630609315.0,286047001.8,Y
1630609315.9,286047001.8,P
1630609335.8,286046999.7,P
1630609355.6,286047002.7,N
1630609375.4,286047001.6,N
1630609395.3,286047001.9,N
1630609415.1,286047001.8,N
1630609435.8,286047003.7,Y
1630609455.7,286047001.8,P
1630609475.5,286047001.3,P
1630609495.3,286047003.7,P
1630609515.2,286047003.7,Y
1630609535.0,286047000.3,P
1630609535.9,286047000.3,N
1630609555.7,286046999.9,N
1630609575.6,286047000.1,N
1630609595.4,286047001.4,N
1630609615.2,286047001.8,N
1630609635.1,286047004.2,Y
1630609636.0,286047004.2,P
1630609655.8,286047002.3,N
1630609675.6,286047000.3,N
1630609695.5,286047001.5,N
1630609715.3,286047001.4,N
1630609735.1,286047004.4,Y
1630609755.9,286047000.4,P
1630609775.7,286047000.3,N
1630609795.5,286047000.6,N
1630609815.4,286047001.2,N
1630609835.2,286046998.2,Y
1630609855.1,286047000.5,P
1630609856.0,286047000.5,N
1630609875.8,286047001.2,P
1630609895.6,286046998.3,Y
1630609915.5,286047001.2,P
1630609935.3,286047000.7,P
1630609955.1,286046999.1,P
1630609975.9,286046999.3,N
1630609995.7,286046999.5,N
1630610015.5,286046997.5,Y
1630610035.4,286046995.3,P
1630610055.2,286046997.6,N
1630610075.0,286046997.8,N
1630610075.9,286046997.8,N
1630610095.8,286046997.6,N
1630610115.6,286046994.9,Y
1630610135.4,286046998.5,P
1630610155.3,286047000.5,N
1630610175.1,286047001.2,N
1630610176.0,286047001.2,N
1630610195.8,286046998.5,N
1630610215.7,286046999.1,N
1630610235.5,286046999.2,N
1630610255.3,286046999.2,N
1630610275.2,286046999.5,N
1630610295.9,286046997.1,N
1630610315.7,286046997.6,N
1630610335.6,286046997.9,N
1630610355.4,286046997.7,N
1630610375.2,286046996.1,Y
1630610395.1,286046997.3,P
1630610396.0,286046997.3,P
1630610415.8,286046997.6,P
1630610435.6,286046997.3,Y
1630610455.5,286046998.9,P
1630610475.3,286046999.0,N
1630610495.1,286046996.6,P
1630610515.9,286046997.3,N
1630610535.7,286046997.3,N
1630610555.5,286046996.8,Y
1630610575.4,286047000.8,P
1630610595.2,286047001.2,N
1630610615.0,286047000.4,N
1630610615.9,286047000.4,N
1630610635.8,286046996.5,N
1630610655.6,286046996.5,N
1630610675.4,286046997.1,N
1630610695.3,286046996.7,N
1630610715.1,286046999.4,N
1630610735.8,286046996.6,N
1630610755.7,286046999.3,N
1630610775.5,286046998.9,N
1630610795.3,286046998.2,N
1630610815.2,286046998.5,N
1630610835.9,286047000.5,N
1630610855.7,286046998.1,N
1630610875.6,286047000.8,N
1630610895.4,286046998.1,N
1630610915.2,286047002.7,N
1630610935.1,286047000.2,N
1630610936.0,286047000.2,N
1630610955.8,286047000.6,N
1630610975.6,286047000.6,N
1630610995.5,286046999.7,N
1630611015.3,286047000.2,N
1630611035.1,286047002.3,N
1630611055.9,286047002.7,N
1630611075.7,286047001.9,N
1630611095.5,286047004.2,N
1630611115.4,286047003.9,N
1630611135.2,286047001.8,N
1630611155.0,286047003.8,N
1630611155.9,286047003.8,N
1630611175.8,286047003.6,N
1630611195.6,286047006.0,N
1630611215.4,286047003.0,N
1630611235.3,286047005.6,N
1630611255.1,286047004.8,N
1630611256.0,286047004.8,N
1630611275.8,286047005.4,N
1630611295.7,286047003.0,N
1630611315.5,286047005.0,N
1630611335.3,286047005.0,N
1630611355.2,286047005.1,N
1630611375.9,286047005.1,N
1630611395.7,286047005.0,N
1630611415.6,286047004.9,N
1630611435.4,286047007.2,Y
1630611455.2,286047001.3,P
1630611475.1,286047003.1,P
1630611476.0,286047003.1,P
1630611495.8,286047001.3,N
1630611515.6,286047003.4,Y
1630611535.5,286047002.8,P
1630611555.3,286047000.3,N
1630611575.1,286047000.9,N
1630611595.9,286046999.9,N
1630611615.7,286047002.2,N
1630611635.5,286047002.1,N
1630611655.4,286047001.3,N
1630611675.2,286047001.5,N
1630611695.0,286047002.1,N
1630611695.9,286047002.1,N
1630611715.8,286047001.9,N
1630611735.6,286047001.5,N
1630611755.4,286047001.9,N
1630611775.3,286047002.5,Y
1630611795.1,286047002.5,P
1630611796.0,286047002.5,P
1630611815.8,286046999.9,N
1630611835.7,286047001.0,N
1630611855.5,286046998.7,N
1630611875.3,286047001.0,N
1630611895.2,286047000.9,N
1630611915.9,286047000.7,N
1630611935.7,286047000.8,N
1630611955.6,286047000.4,N
1630611975.4,286047000.7,N
1630611995.2,286046998.3,N
1630612015.1,286047000.6,N
1630612016.0,286047000.6,N
1630612035.8,286046998.1,N
1630612055.6,286047000.7,N
1630612075.5,286046998.8,N
1630612095.3,286046999.2,N
1630612115.1,286046998.3,N
1630612135.9,286046998.7,N
1630612155.7,286046999.1,N
1630612175.5,286046996.9,N
1630612195.4,286046998.6,N
1630612215.2,286046998.7,N
1630612235.0,286046998.5,N
1630612235.9,286046998.5,N
1630612255.8,286047001.2,N
1630612275.6,286046998.3,N
1630612295.4,286046998.7,N
1630612315.3,286046998.4,N
1630612335.1,286046998.4,N
1630612336.0,286046998.4,N
1630612355.8,286046998.9,N
1630612375.7,286046999.5,N
1630612395.5,286046997.3,N
1630612415.3,286046997.6,N
1630612435.2,286046997.5,N
1630612455.9,286046997.5,N
1630612475.7,286046997.5,N
1630612495.6,286046997.9,N
1630612515.4,286046995.3,Y
1630612535.2,286046996.5,P
1630612555.1,286046996.9,N
1630612556.0,286046996.9,P
1630612575.8,286046997.3,Y
1630612595.6,286047000.4,P
1630612615.5,286047001.2,N
1630612635.3,286047000.6,N
1630612655.1,286046999.9,N
1630612675.9,286047000.0,N
1630612695.7,286047000.1,N
1630612715.5,286046999.7,N
1630612735.4,286047000.2,N
1630612755.2,286047000.4,N
1630612775.0,286047002.8,N
1630612775.9,286047002.8,N
1630612795.8,286046999.9,N
